Time,TemperatureF,DewpointF,PressureIn,WindDirection,WindDirectionDegrees,WindSpeedMPH,WindSpeedGustMPH,Humidity,HourlyPrecipIn,Conditions,Clouds,dailyrainin,SoftwareType,DateUTC
2014-03-02 00:04:00,43.5,0.0,30.02,South,180,12.3,13.9,0,0.00,,,0.00,WUHU21623XXSP,2014-03-02 07:04:00,
2014-03-02 00:09:00,43.5,0.0,30.02,South,180,10.7,13.9,0,0.00,,,0.00,WUHU21623XXSP,2014-03-02 07:09:00,
2014-03-02 00:14:00,43.7,0.0,30.02,SSE,157,12.5,15.0,0,0.00,,,0.00,WUHU21623XXSP,2014-03-02 07:14:00,
2014-03-02 00:19:00,43.9,0.0,30.01,SSE,157,14.1,16.8,0,0.00,,,0.00,WUHU21623XXSP,2014-03-02 07:19:00,
2014-03-02 00:24:00,44.1,0.0,30.01,SSE,157,13.6,16.8,0,0.00,,,0.00,WUHU21623XXSP,2014-03-02 07:24:00,
2014-03-02 00:29:00,44.2,0.0,30.01,SSE,157,13.0,16.3,0,0.00,,,0.00,WUHU21623XXSP,2014-03-02 07:29:00,
2014-03-02 00:34:00,44.4,0.0,30.01,SSE,157,11.6,16.8,0,0.00,,,0.00,WUHU21623XXSP,2014-03-02 07:34:00,
2014-03-02 00:39:00,44.2,0.0,30.02,SSE,157,15.4,16.8,0,0.00,,,0.00,WUHU21623XXSP,2014-03-02 07:39:00,
2014-03-02 00:44:00,44.4,0.0,30.01,SSE,157,11.9,16.6,0,0.00,,,0.00,WUHU21623XXSP,2014-03-02 07:44:00,
2014-03-02 00:49:00,44.4,0.0,30.01,South,180,9.6,15.2,0,0.00,,,0.00,WUHU21623XXSP,2014-03-02 07:49:00,
2014-03-02 00:54:00,44.4,0.0,30.01,South,180,10.3,15.7,0,0.00,,,0.00,WUHU21623XXSP,2014-03-02 07:54:00,
2014-03-02 00:59:00,44.4,0.0,30.02,SSE,157,6.5,15.7,0,0.00,,,0.00,WUHU21623XXSP,2014-03-02 07:59:00,
2014-03-02 01:04:00,44.4,0.0,30.02,South,180,6.5,12.1,0,0.00,,,0.00,WUHU21623XXSP,2014-03-02 08:04:00,
2014-03-02 01:09:00,44.8,0.0,30.01,SSE,157,9.2,10.3,0,0.00,,,0.00,WUHU21623XXSP,2014-03-02 08:09:00,
2014-03-02 01:14:00,45.1,0.0,30.01,South,180,6.0,14.3,0,0.00,,,0.00,WUHU21623XXSP,2014-03-02 08:14:00,
2014-03-02 01:19:00,45.3,0.0,30.00,South,180,10.3,14.3,0,0.00,,,0.00,WUHU21623XXSP,2014-03-02 08:19:00,
2014-03-02 01:24:00,45.5,0.0,30.01,South,180,0.0,10.3,0,0.00,,,0.00,WUHU21623XXSP,2014-03-02 08:24:00,
2014-03-02 01:29:00,45.5,0.0,30.01,South,180,5.8,9.4,0,0.00,,,0.00,WUHU21623XXSP,2014-03-02 08:29:00,
2014-03-02 01:34:00,45.1,0.0,30.01,South,180,2.2,6.5,0,0.00,,,0.00,WUHU21623XXSP,2014-03-02 08:34:00,
2014-03-02 01:40:00,45.1,0.0,30.02,South,180,0.0,5.4,0,0.00,,,0.00,WUHU21623XXSP,2014-03-02 08:40:00,
2014-03-02 01:45:00,45.3,0.0,30.01,South,180,6.9,9.2,0,0.00,,,0.00,WUHU21623XXSP,2014-03-02 08:45:00,
2014-03-02 01:50:00,45.5,0.0,30.00,SE,135,4.9,9.2,0,0.00,,,0.00,WUHU21623XXSP,2014-03-02 08:50:00,
2014-03-02 01:55:00,45.7,0.0,30.01,SSE,157,3.6,7.2,0,0.00,,,0.00,WUHU21623XXSP,2014-03-02 08:55:00,
2014-03-02 02:00:00,45.9,0.0,30.01,SSE,157,6.3,11.0,0,0.00,,,0.00,WUHU21623XXSP,2014-03-02 09:00:00,
2014-03-02 02:05:00,46.2,0.0,30.01,South,180,0.0,12.5,0,0.00,,,0.00,WUHU21623XXSP,2014-03-02 09:05:00,
2014-03-02 02:10:00,46.2,0.0,30.01,South,180,0.0,12.5,0,0.00,,,0.00,WUHU21623XXSP,2014-03-02 09:10:00,
2014-03-02 02:15:00,46.2,0.0,30.01,South,180,0.0,5.4,0,0.00,,,0.00,WUHU21623XXSP,2014-03-02 09:15:00,
2014-03-02 02:20:00,46.0,0.0,30.02,South,180,0.0,5.4,0,0.00,,,0.00,WUHU21623XXSP,2014-03-02 09:20:00,
2014-03-02 02:25:00,45.7,0.0,30.01,South,180,0.0,0.0,0,0.00,,,0.00,WUHU21623XXSP,2014-03-02 09:25:00,
2014-03-02 02:30:00,45.5,0.0,30.02,South,180,0.0,0.0,0,0.00,,,0.00,WUHU21623XXSP,2014-03-02 09:30:00,
2014-03-02 02:35:00,46.2,0.0,30.01,SE,135,11.2,11.2,0,0.00,,,0.00,WUHU21623XXSP,2014-03-02 09:35:00,
2014-03-02 02:40:00,47.1,0.0,30.01,SW,225,2.9,13.0,0,0.00,,,0.00,WUHU21623XXSP,2014-03-02 09:40:00,
2014-03-02 02:45:00,47.1,0.0,30.01,SSE,157,0.0,13.0,0,0.00,,,0.00,WUHU21623XXSP,2014-03-02 09:45:00,
2014-03-02 02:50:00,46.9,0.0,30.01,SSE,157,2.7,11.9,0,0.00,,,0.00,WUHU21623XXSP,2014-03-02 09:50:00,
2014-03-02 02:55:00,46.9,0.0,30.01,South,180,0.0,11.9,0,0.00,,,0.00,WUHU21623XXSP,2014-03-02 09:55:00,
2014-03-02 03:00:00,46.9,0.0,30.01,South,180,10.1,11.9,0,0.00,,,0.00,WUHU21623XXSP,2014-03-02 10:00:00,
2014-03-02 03:05:00,47.1,0.0,30.01,SSE,157,0.0,11.9,0,0.00,,,0.00,WUHU21623XXSP,2014-03-02 10:05:00,
2014-03-02 03:10:00,46.8,0.0,30.01,SSE,157,2.7,12.8,0,0.00,,,0.00,WUHU21623XXSP,2014-03-02 10:10:00,
2014-03-02 03:15:00,46.6,0.0,30.01,SSE,157,10.3,13.4,0,0.00,,,0.00,WUHU21623XXSP,2014-03-02 10:15:00,
2014-03-02 03:20:00,46.6,0.0,30.01,SSE,157,5.8,13.4,0,0.00,,,0.00,WUHU21623XXSP,2014-03-02 10:20:00,
2014-03-02 03:25:00,46.6,0.0,30.02,SSE,157,9.8,13.9,0,0.00,,,0.00,WUHU21623XXSP,2014-03-02 10:25:00,
2014-03-02 03:30:00,46.9,0.0,30.02,SSE,157,6.9,13.9,0,0.00,,,0.00,WUHU21623XXSP,2014-03-02 10:30:00,
2014-03-02 03:35:00,46.6,0.0,30.02,SSE,157,9.6,11.2,0,0.00,,,0.00,WUHU21623XXSP,2014-03-02 10:35:00,
2014-03-02 03:40:00,46.6,0.0,30.03,South,180,8.7,11.2,0,0.00,,,0.00,WUHU21623XXSP,2014-03-02 10:40:00,
2014-03-02 03:45:00,46.2,0.0,30.04,North,0,4.5,15.0,0,0.00,,,0.00,WUHU21623XXSP,2014-03-02 10:45:00,
2014-03-02 03:50:00,45.1,0.0,30.05,North,0,9.6,23.5,0,0.00,,,0.00,WUHU21623XXSP,2014-03-02 10:50:00,
2014-03-02 03:55:00,43.7,0.0,30.06,North,0,19.7,24.8,0,0.00,,,0.00,WUHU21623XXSP,2014-03-02 10:55:00,
2014-03-02 04:00:00,43.0,0.0,30.07,North,0,11.6,24.8,0,0.00,,,0.00,WUHU21623XXSP,2014-03-02 11:00:00,
2014-03-02 04:06:00,42.6,0.0,30.07,North,0,10.5,18.3,0,0.00,,,0.00,WUHU21623XXSP,2014-03-02 11:06:00,
2014-03-02 04:11:00,42.4,0.0,30.06,NNW,337,22.1,26.2,0,0.00,,,0.00,WUHU21623XXSP,2014-03-02 11:11:00,
2014-03-02 04:16:00,42.6,0.0,30.07,North,0,18.8,28.6,0,0.00,,,0.00,WUHU21623XXSP,2014-03-02 11:16:00,
2014-03-02 04:21:00,42.6,0.0,30.08,North,0,14.1,28.6,0,0.00,,,0.00,WUHU21623XXSP,2014-03-02 11:21:00,
2014-03-02 04:26:00,42.4,0.0,30.08,NNW,337,16.3,23.0,0,0.00,,,0.00,WUHU21623XXSP,2014-03-02 11:26:00,
2014-03-02 04:31:00,42.4,0.0,30.08,NNW,337,15.0,22.6,0,0.00,,,0.00,WUHU21623XXSP,2014-03-02 11:31:00,
2014-03-02 04:36:00,42.4,0.0,30.08,NNW,337,17.2,21.7,0,0.00,,,0.00,WUHU21623XXSP,2014-03-02 11:36:00,
2014-03-02 04:41:00,42.3,0.0,30.08,NNW,337,18.8,21.7,0,0.00,,,0.00,WUHU21623XXSP,2014-03-02 11:41:00,
2014-03-02 04:46:00,42.1,0.0,30.08,NNW,337,20.8,22.6,0,0.00,,,0.00,WUHU21623XXSP,2014-03-02 11:46:00,
2014-03-02 04:51:00,42.1,0.0,30.09,NNW,337,17.4,23.3,0,0.00,,,0.00,WUHU21623XXSP,2014-03-02 11:51:00,
2014-03-02 04:56:00,42.1,0.0,30.09,NNW,337,8.1,23.0,0,0.00,,,0.00,WUHU21623XXSP,2014-03-02 11:56:00,
2014-03-02 05:01:00,42.1,0.0,30.09,NNW,337,6.5,15.9,0,0.00,,,0.00,WUHU21623XXSP,2014-03-02 12:01:00,
2014-03-02 05:06:00,41.7,0.0,30.09,NNE,22,3.6,13.2,0,0.00,,,0.00,WUHU21623XXSP,2014-03-02 12:06:00,
2014-03-02 05:11:00,41.5,0.0,30.08,North,0,9.8,9.8,0,0.00,,,0.00,WUHU21623XXSP,2014-03-02 12:11:00,
2014-03-02 05:16:00,41.2,0.0,30.09,NNE,22,4.3,9.8,0,0.00,,,0.00,WUHU21623XXSP,2014-03-02 12:16:00,
2014-03-02 05:21:00,40.8,0.0,30.09,NNE,22,6.7,6.9,0,0.00,,,0.00,WUHU21623XXSP,2014-03-02 12:21:00,
2014-03-02 05:26:00,40.6,0.0,30.08,NNE,22,4.0,8.3,0,0.00,,,0.00,WUHU21623XXSP,2014-03-02 12:26:00,
2014-03-02 05:31:00,40.5,0.0,30.08,North,0,4.0,9.2,0,0.00,,,0.00,WUHU21623XXSP,2014-03-02 12:31:00,
2014-03-02 05:36:00,40.3,0.0,30.08,NNE,22,9.2,10.1,0,0.00,,,0.00,WUHU21623XXSP,2014-03-02 12:36:00,
2014-03-02 05:41:00,40.3,0.0,30.08,NNE,22,1.3,10.1,0,0.00,,,0.00,WUHU21623XXSP,2014-03-02 12:41:00,
2014-03-02 05:46:00,40.3,0.0,30.08,North,0,5.6,9.4,0,0.00,,,0.00,WUHU21623XXSP,2014-03-02 12:46:00,
2014-03-02 05:51:00,40.6,0.0,30.08,North,0,7.6,8.1,0,0.00,,,0.00,WUHU21623XXSP,2014-03-02 12:51:00,
2014-03-02 05:56:00,40.6,0.0,30.08,North,0,2.7,8.1,0,0.00,,,0.00,WUHU21623XXSP,2014-03-02 12:56:00,
2014-03-02 06:01:00,41.2,0.0,30.08,NNW,337,6.5,7.6,0,0.00,,,0.00,WUHU21623XXSP,2014-03-02 13:01:00,
2014-03-02 06:06:00,42.1,0.0,30.08,NNW,337,7.8,11.0,0,0.00,,,0.00,WUHU21623XXSP,2014-03-02 13:06:00,
2014-03-02 06:11:00,42.4,0.0,30.08,NNW,337,11.0,12.5,0,0.00,,,0.00,WUHU21623XXSP,2014-03-02 13:11:00,
2014-03-02 06:16:00,42.4,0.0,30.08,North,0,8.5,12.5,0,0.00,,,0.00,WUHU21623XXSP,2014-03-02 13:16:00,
2014-03-02 06:21:00,43.0,0.0,30.08,North,0,6.9,12.1,0,0.00,,,0.00,WUHU21623XXSP,2014-03-02 13:21:00,
2014-03-02 06:26:00,43.7,0.0,30.08,NW,315,9.4,13.6,0,0.00,,,0.00,WUHU21623XXSP,2014-03-02 13:26:00,
2014-03-02 06:31:00,44.2,0.0,30.08,NW,315,8.1,13.6,0,0.00,,,0.00,WUHU21623XXSP,2014-03-02 13:31:00,
2014-03-02 06:36:00,44.4,0.0,30.09,NNW,337,14.1,14.1,0,0.00,,,0.00,WUHU21623XXSP,2014-03-02 13:36:00,
2014-03-02 06:41:00,44.8,0.0,30.09,NNW,337,8.7,18.8,0,0.00,,,0.00,WUHU21623XXSP,2014-03-02 13:41:00,
2014-03-02 06:46:00,45.0,0.0,30.09,NW,315,7.6,18.8,0,0.00,,,0.00,WUHU21623XXSP,2014-03-02 13:46:00,
2014-03-02 06:51:00,45.3,0.0,30.09,NNW,337,4.5,15.0,0,0.00,,,0.00,WUHU21623XXSP,2014-03-02 13:51:00,
2014-03-02 06:56:00,45.1,0.0,30.09,NNW,337,0.0,11.9,0,0.00,,,0.00,WUHU21623XXSP,2014-03-02 13:56:00,
2014-03-02 07:01:00,43.9,0.0,30.09,WNW,292,5.4,7.2,0,0.00,,,0.00,WUHU21623XXSP,2014-03-02 14:01:00,
2014-03-02 07:06:00,43.0,0.0,30.10,WNW,292,6.5,7.2,0,0.00,,,0.00,WUHU21623XXSP,2014-03-02 14:06:00,
2014-03-02 07:11:00,43.7,0.0,30.10,WNW,292,5.8,7.8,0,0.00,,,0.00,WUHU21623XXSP,2014-03-02 14:11:00,
2014-03-02 07:16:00,43.9,0.0,30.09,WNW,292,6.5,7.8,0,0.00,,,0.00,WUHU21623XXSP,2014-03-02 14:16:00,
2014-03-02 07:21:00,45.1,0.0,30.10,WNW,292,5.4,9.8,0,0.00,,,0.00,WUHU21623XXSP,2014-03-02 14:21:00,
2014-03-02 07:27:00,45.7,0.0,30.10,WNW,292,3.8,9.8,0,0.00,,,0.00,WUHU21623XXSP,2014-03-02 14:27:00,
2014-03-02 07:32:00,45.0,0.0,30.10,WNW,292,4.0,5.8,0,0.00,,,0.00,WUHU21623XXSP,2014-03-02 14:32:00,
2014-03-02 07:37:00,45.0,0.0,30.11,WNW,292,5.4,6.0,0,0.00,,,0.00,WUHU21623XXSP,2014-03-02 14:37:00,
2014-03-02 07:42:00,45.0,0.0,30.11,WNW,292,3.6,9.2,0,0.00,,,0.00,WUHU21623XXSP,2014-03-02 14:42:00,
2014-03-02 07:47:00,46.6,0.0,30.11,WNW,292,0.0,9.2,0,0.00,,,0.00,WUHU21623XXSP,2014-03-02 14:47:00,
2014-03-02 07:52:00,48.6,0.0,30.12,WNW,292,0.0,2.2,0,0.00,,,0.00,WUHU21623XXSP,2014-03-02 14:52:00,
2014-03-02 07:57:00,49.3,0.0,30.12,WNW,292,0.0,1.8,0,0.00,,,0.00,WUHU21623XXSP,2014-03-02 14:57:00,
2014-03-02 08:02:00,50.4,0.0,30.12,WNW,292,0.0,1.8,0,0.00,,,0.00,WUHU21623XXSP,2014-03-02 15:02:00,
2014-03-02 08:07:00,51.6,0.0,30.13,WNW,292,0.0,0.0,0,0.00,,,0.00,WUHU21623XXSP,2014-03-02 15:07:00,
2014-03-02 08:12:00,52.3,0.0,30.12,WNW,292,0.0,0.0,0,0.00,,,0.00,WUHU21623XXSP,2014-03-02 15:12:00,
2014-03-02 08:17:00,51.1,0.0,30.13,WNW,292,0.0,0.0,0,0.00,,,0.00,WUHU21623XXSP,2014-03-02 15:17:00,
2014-03-02 08:22:00,50.9,0.0,30.13,WNW,292,0.0,3.4,0,0.00,,,0.00,WUHU21623XXSP,2014-03-02 15:22:00,
2014-03-02 08:23:00,51.4,0.0,30.13,WNW,292,2.7,3.6,0,0.00,,,0.00,WUHU21623XXSP,2014-03-02 15:23:00,
2014-03-02 08:28:00,52.3,0.0,30.13,NW,315,0.0,4.3,0,0.00,,,0.00,WUHU21623XXSP,2014-03-02 15:28:00,
2014-03-02 08:33:00,53.4,0.0,30.13,NW,315,0.0,4.3,0,0.00,,,0.00,WUHU21623XXSP,2014-03-02 15:33:00,
2014-03-02 08:38:00,54.7,0.0,30.14,NW,315,0.0,0.0,0,0.00,,,0.00,WUHU21623XXSP,2014-03-02 15:38:00,
2014-03-02 08:43:00,55.2,0.0,30.14,NW,315,0.0,0.0,0,0.00,,,0.00,WUHU21623XXSP,2014-03-02 15:43:00,
2014-03-02 08:48:00,54.7,0.0,30.14,NW,315,0.0,0.0,0,0.00,,,0.00,WUHU21623XXSP,2014-03-02 15:48:00,
2014-03-02 08:53:00,54.1,0.0,30.14,NW,315,1.1,2.2,0,0.00,,,0.00,WUHU21623XXSP,2014-03-02 15:53:00,
2014-03-02 08:58:00,52.7,0.0,30.14,NW,315,0.0,4.3,0,0.00,,,0.00,WUHU21623XXSP,2014-03-02 15:58:00,
2014-03-02 09:03:00,53.4,0.0,30.15,NW,315,0.0,4.3,0,0.00,,,0.00,WUHU21623XXSP,2014-03-02 16:03:00,
2014-03-02 09:08:00,53.2,0.0,30.15,NW,315,0.0,0.0,0,0.00,,,0.00,WUHU21623XXSP,2014-03-02 16:08:00,
2014-03-02 09:13:00,55.2,0.0,30.15,NW,315,0.0,1.6,0,0.00,,,0.00,WUHU21623XXSP,2014-03-02 16:13:00,
2014-03-02 09:18:00,56.5,0.0,30.15,NW,315,2.2,2.2,0,0.00,,,0.00,WUHU21623XXSP,2014-03-02 16:18:00,
2014-03-02 09:23:00,57.6,0.0,30.15,NNW,337,4.0,4.9,0,0.00,,,0.00,WUHU21623XXSP,2014-03-02 16:23:00,
2014-03-02 09:28:00,58.1,0.0,30.15,NNW,337,0.0,7.2,0,0.00,,,0.00,WUHU21623XXSP,2014-03-02 16:28:00,
2014-03-02 09:33:00,58.1,0.0,30.15,ENE,67,5.4,8.7,0,0.00,,,0.00,WUHU21623XXSP,2014-03-02 16:33:00,
2014-03-02 09:38:00,57.9,0.0,30.16,ENE,67,0.0,8.7,0,0.00,,,0.00,WUHU21623XXSP,2014-03-02 16:38:00,
2014-03-02 09:43:00,57.4,0.0,30.16,ENE,67,3.6,6.5,0,0.00,,,0.00,WUHU21623XXSP,2014-03-02 16:43:00,
2014-03-02 09:48:00,56.5,0.0,30.16,East,90,0.0,9.6,0,0.00,,,0.00,WUHU21623XXSP,2014-03-02 16:48:00,
2014-03-02 09:53:00,54.1,0.0,30.16,ESE,112,0.0,9.6,0,0.00,,,0.00,WUHU21623XXSP,2014-03-02 16:53:00,
2014-03-02 09:58:00,54.1,0.0,30.16,ESE,112,0.0,8.3,0,0.00,,,0.00,WUHU21623XXSP,2014-03-02 16:58:00,
2014-03-02 10:03:00,56.3,0.0,30.16,East,90,0.0,3.1,0,0.00,,,0.00,WUHU21623XXSP,2014-03-02 17:03:00,
2014-03-02 10:08:00,57.0,0.0,30.16,East,90,0.0,3.6,0,0.00,,,0.00,WUHU21623XXSP,2014-03-02 17:08:00,
2014-03-02 10:13:00,57.9,0.0,30.16,East,90,0.0,3.6,0,0.00,,,0.00,WUHU21623XXSP,2014-03-02 17:13:00,
2014-03-02 10:18:00,58.1,0.0,30.16,East,90,0.0,2.5,0,0.00,,,0.00,WUHU21623XXSP,2014-03-02 17:18:00,
2014-03-02 10:23:00,58.8,0.0,30.16,ENE,67,2.0,6.0,0,0.00,,,0.00,WUHU21623XXSP,2014-03-02 17:23:00,
2014-03-02 10:28:00,59.5,0.0,30.16,NE,45,6.3,9.4,0,0.00,,,0.00,WUHU21623XXSP,2014-03-02 17:28:00,
2014-03-02 10:33:00,61.5,0.0,30.16,ENE,67,7.2,9.4,0,0.00,,,0.00,WUHU21623XXSP,2014-03-02 17:33:00,
2014-03-02 10:38:00,61.2,0.0,30.16,NE,45,8.7,13.9,0,0.00,,,0.00,WUHU21623XXSP,2014-03-02 17:38:00,
2014-03-02 10:43:00,60.4,0.0,30.16,ENE,67,0.0,13.9,0,0.00,,,0.00,WUHU21623XXSP,2014-03-02 17:43:00,
2014-03-02 10:48:00,61.3,0.0,30.16,ENE,67,2.5,9.6,0,0.00,,,0.00,WUHU21623XXSP,2014-03-02 17:48:00,
2014-03-02 10:53:00,63.1,0.0,30.16,NE,45,0.0,9.2,0,0.00,,,0.00,WUHU21623XXSP,2014-03-02 17:53:00,
2014-03-02 10:58:00,64.8,0.0,30.16,NE,45,5.1,9.2,0,0.00,,,0.00,WUHU21623XXSP,2014-03-02 17:58:00,
2014-03-02 11:03:00,63.7,0.0,30.16,NE,45,7.6,7.6,0,0.00,,,0.00,WUHU21623XXSP,2014-03-02 18:03:00,
2014-03-02 11:08:00,64.0,0.0,30.16,NE,45,0.0,7.6,0,0.00,,,0.00,WUHU21623XXSP,2014-03-02 18:08:00,
2014-03-02 11:14:00,62.2,0.0,30.15,NW,315,14.1,19.2,0,0.00,,,0.00,WUHU21623XXSP,2014-03-02 18:14:00,
2014-03-02 11:19:00,61.0,0.0,30.15,NW,315,7.6,24.4,0,0.00,,,0.00,WUHU21623XXSP,2014-03-02 18:19:00,
2014-03-02 11:24:00,62.4,0.0,30.15,NW,315,13.2,24.4,0,0.00,,,0.00,WUHU21623XXSP,2014-03-02 18:24:00,
2014-03-02 11:29:00,62.8,0.0,30.15,NW,315,15.0,20.4,0,0.00,,,0.00,WUHU21623XXSP,2014-03-02 18:29:00,
2014-03-02 11:34:00,63.5,0.0,30.15,NNW,337,15.9,20.4,0,0.00,,,0.00,WUHU21623XXSP,2014-03-02 18:34:00,
2014-03-02 11:39:00,64.2,0.0,30.15,NW,315,13.9,19.2,0,0.00,,,0.00,WUHU21623XXSP,2014-03-02 18:39:00,
2014-03-02 11:44:00,64.6,0.0,30.15,NW,315,15.2,19.2,0,0.00,,,0.00,WUHU21623XXSP,2014-03-02 18:44:00,
2014-03-02 11:49:00,64.6,0.0,30.15,NNE,22,13.0,19.5,0,0.00,,,0.00,WUHU21623XXSP,2014-03-02 18:49:00,
2014-03-02 11:54:00,64.4,0.0,30.14,NNW,337,16.8,21.3,0,0.00,,,0.00,WUHU21623XXSP,2014-03-02 18:54:00,
2014-03-02 11:59:00,64.4,0.0,30.14,North,0,12.8,21.3,0,0.00,,,0.00,WUHU21623XXSP,2014-03-02 18:59:00,
2014-03-02 12:04:00,63.7,0.0,30.14,North,0,18.3,24.2,0,0.00,,,0.00,WUHU21623XXSP,2014-03-02 19:04:00,
2014-03-02 12:09:00,63.7,0.0,30.14,NNE,22,18.6,24.2,0,0.00,,,0.00,WUHU21623XXSP,2014-03-02 19:09:00,
2014-03-02 12:14:00,63.5,0.0,30.14,NNE,22,21.9,25.5,0,0.00,,,0.00,WUHU21623XXSP,2014-03-02 19:14:00,
2014-03-02 12:19:00,63.0,0.0,30.14,NE,45,26.8,26.8,0,0.00,,,0.00,WUHU21623XXSP,2014-03-02 19:19:00,
2014-03-02 12:24:00,62.4,0.0,30.14,North,0,17.9,26.8,0,0.00,,,0.00,WUHU21623XXSP,2014-03-02 19:24:00,
2014-03-02 12:29:00,63.3,0.0,30.14,NNW,337,17.7,24.2,0,0.00,,,0.00,WUHU21623XXSP,2014-03-02 19:29:00,
2014-03-02 12:34:00,63.7,0.0,30.14,NNE,22,18.3,24.2,0,0.00,,,0.00,WUHU21623XXSP,2014-03-02 19:34:00,
2014-03-02 12:39:00,63.3,0.0,30.14,NNW,337,13.6,21.9,0,0.00,,,0.00,WUHU21623XXSP,2014-03-02 19:39:00,
2014-03-02 12:44:00,63.5,0.0,30.13,NNE,22,8.5,22.1,0,0.00,,,0.00,WUHU21623XXSP,2014-03-02 19:44:00,
2014-03-02 12:49:00,64.6,0.0,30.13,NNW,337,20.1,22.1,0,0.00,,,0.00,WUHU21623XXSP,2014-03-02 19:49:00,
2014-03-02 12:54:00,64.6,0.0,30.13,North,0,23.3,25.3,0,0.00,,,0.00,WUHU21623XXSP,2014-03-02 19:54:00,
2014-03-02 12:59:00,64.2,0.0,30.13,North,0,21.5,25.3,0,0.00,,,0.00,WUHU21623XXSP,2014-03-02 19:59:00,
2014-03-02 13:04:00,64.0,0.0,30.12,North,0,15.9,23.7,0,0.00,,,0.00,WUHU21623XXSP,2014-03-02 20:04:00,
2014-03-02 13:09:00,63.9,0.0,30.12,North,0,23.3,24.4,0,0.00,,,0.00,WUHU21623XXSP,2014-03-02 20:09:00,
2014-03-02 13:14:00,63.7,0.0,30.12,NNW,337,19.2,24.4,0,0.00,,,0.00,WUHU21623XXSP,2014-03-02 20:14:00,
2014-03-02 13:19:00,64.0,0.0,30.11,NNE,22,18.8,25.9,0,0.00,,,0.00,WUHU21623XXSP,2014-03-02 20:19:00,
2014-03-02 13:24:00,64.2,0.0,30.12,NNE,22,19.9,25.9,0,0.00,,,0.00,WUHU21623XXSP,2014-03-02 20:24:00,
2014-03-02 13:29:00,64.8,0.0,30.12,NNE,22,21.9,24.4,0,0.00,,,0.00,WUHU21623XXSP,2014-03-02 20:29:00,
2014-03-02 13:34:00,64.8,0.0,30.11,NNE,22,19.9,24.4,0,0.00,,,0.00,WUHU21623XXSP,2014-03-02 20:34:00,
2014-03-02 13:39:00,65.1,0.0,30.11,NNE,22,19.9,22.8,0,0.00,,,0.00,WUHU21623XXSP,2014-03-02 20:39:00,
2014-03-02 13:44:00,65.1,0.0,30.11,NNE,22,13.2,23.3,0,0.00,,,0.00,WUHU21623XXSP,2014-03-02 20:44:00,
2014-03-02 13:49:00,65.7,0.0,30.11,NE,45,10.3,23.3,0,0.00,,,0.00,WUHU21623XXSP,2014-03-02 20:49:00,
2014-03-02 13:54:00,66.0,0.0,30.11,NNE,22,20.1,22.4,0,0.00,,,0.00,WUHU21623XXSP,2014-03-02 20:54:00,
2014-03-02 13:59:00,66.0,0.0,30.10,NNE,22,19.2,22.6,0,0.00,,,0.00,WUHU21623XXSP,2014-03-02 20:59:00,
2014-03-02 14:04:00,65.3,0.0,30.10,NNE,22,13.9,22.6,0,0.00,,,0.00,WUHU21623XXSP,2014-03-02 21:04:00,
2014-03-02 14:09:00,64.9,0.0,30.11,North,0,13.0,22.4,0,0.00,,,0.00,WUHU21623XXSP,2014-03-02 21:09:00,
2014-03-02 14:14:00,64.6,0.0,30.11,NNE,22,14.5,19.2,0,0.00,,,0.00,WUHU21623XXSP,2014-03-02 21:14:00,
2014-03-02 14:19:00,64.8,0.0,30.11,North,0,11.2,19.0,0,0.00,,,0.00,WUHU21623XXSP,2014-03-02 21:19:00,
2014-03-02 14:24:00,65.7,0.0,30.11,NNE,22,16.1,18.6,0,0.00,,,0.00,WUHU21623XXSP,2014-03-02 21:24:00,
2014-03-02 14:29:00,65.5,0.0,30.11,NNE,22,13.4,20.6,0,0.00,,,0.00,WUHU21623XXSP,2014-03-02 21:29:00,
2014-03-02 14:34:00,66.0,0.0,30.11,NE,45,7.4,20.6,0,0.00,,,0.00,WUHU21623XXSP,2014-03-02 21:34:00,
2014-03-02 14:39:00,66.0,0.0,30.11,NNE,22,15.2,17.9,0,0.00,,,0.00,WUHU21623XXSP,2014-03-02 21:39:00,
2014-03-02 14:44:00,66.0,0.0,30.11,NNE,22,11.6,17.9,0,0.00,,,0.00,WUHU21623XXSP,2014-03-02 21:44:00,
2014-03-02 14:49:00,66.7,0.0,30.12,North,0,11.4,14.8,0,0.00,,,0.00,WUHU21623XXSP,2014-03-02 21:49:00,
2014-03-02 14:54:00,66.9,0.0,30.12,NNE,22,7.6,14.3,0,0.00,,,0.00,WUHU21623XXSP,2014-03-02 21:54:00,
2014-03-02 14:59:00,67.1,0.0,30.11,North,0,12.5,15.2,0,0.00,,,0.00,WUHU21623XXSP,2014-03-02 21:59:00,
2014-03-02 15:04:00,67.6,0.0,30.11,North,0,8.1,15.9,0,0.00,,,0.00,WUHU21623XXSP,2014-03-02 22:04:00,
2014-03-02 15:09:00,67.6,0.0,30.10,NE,45,4.7,15.9,0,0.00,,,0.00,WUHU21623XXSP,2014-03-02 22:09:00,
2014-03-02 15:14:00,66.7,0.0,30.10,NNE,22,11.2,15.0,0,0.00,,,0.00,WUHU21623XXSP,2014-03-02 22:14:00,
2014-03-02 15:19:00,66.7,0.0,30.11,NNW,337,12.1,15.7,0,0.00,,,0.00,WUHU21623XXSP,2014-03-02 22:19:00,
2014-03-02 15:24:00,66.7,0.0,30.11,NNE,22,9.2,15.7,0,0.00,,,0.00,WUHU21623XXSP,2014-03-02 22:24:00,
2014-03-02 15:29:00,65.8,0.0,30.11,North,0,13.9,17.2,0,0.00,,,0.00,WUHU21623XXSP,2014-03-02 22:29:00,
2014-03-02 15:34:00,66.4,0.0,30.11,NNE,22,10.7,17.2,0,0.00,,,0.00,WUHU21623XXSP,2014-03-02 22:34:00,
2014-03-02 15:39:00,66.0,0.0,30.10,ENE,67,6.5,12.3,0,0.00,,,0.00,WUHU21623XXSP,2014-03-02 22:39:00,
2014-03-02 15:44:00,65.5,0.0,30.10,ENE,67,5.8,12.3,0,0.00,,,0.00,WUHU21623XXSP,2014-03-02 22:44:00,
2014-03-02 15:49:00,65.1,0.0,30.10,North,0,3.4,11.0,0,0.00,,,0.00,WUHU21623XXSP,2014-03-02 22:49:00,
2014-03-02 15:54:00,65.3,0.0,30.11,North,0,15.0,15.9,0,0.00,,,0.00,WUHU21623XXSP,2014-03-02 22:54:00,
2014-03-02 15:59:00,64.2,0.0,30.11,North,0,7.2,15.9,0,0.00,,,0.00,WUHU21623XXSP,2014-03-02 22:59:00,
2014-03-02 16:04:00,65.1,0.0,30.11,NE,45,6.7,13.6,0,0.00,,,0.00,WUHU21623XXSP,2014-03-02 23:04:00,
2014-03-02 16:09:00,65.1,0.0,30.11,NE,45,6.7,11.0,0,0.00,,,0.00,WUHU21623XXSP,2014-03-02 23:09:00,
2014-03-02 16:15:00,64.2,0.0,30.10,NNE,22,10.7,10.7,0,0.00,,,0.00,WUHU21623XXSP,2014-03-02 23:15:00,
2014-03-02 16:20:00,64.9,0.0,30.10,NNE,22,8.7,11.2,0,0.00,,,0.00,WUHU21623XXSP,2014-03-02 23:20:00,
2014-03-02 16:25:00,64.0,0.0,30.10,ENE,67,9.2,11.9,0,0.00,,,0.00,WUHU21623XXSP,2014-03-02 23:25:00,
2014-03-02 16:30:00,62.4,0.0,30.10,ENE,67,3.1,12.1,0,0.00,,,0.00,WUHU21623XXSP,2014-03-02 23:30:00,
2014-03-02 16:35:00,63.7,0.0,30.10,NE,45,3.4,12.1,0,0.00,,,0.00,WUHU21623XXSP,2014-03-02 23:35:00,
2014-03-02 16:40:00,64.2,0.0,30.10,NE,45,5.6,9.2,0,0.00,,,0.00,WUHU21623XXSP,2014-03-02 23:40:00,
2014-03-02 16:45:00,64.8,0.0,30.10,North,0,9.6,12.8,0,0.00,,,0.00,WUHU21623XXSP,2014-03-02 23:45:00,
2014-03-02 16:50:00,63.1,0.0,30.10,NE,45,6.7,12.8,0,0.00,,,0.00,WUHU21623XXSP,2014-03-02 23:50:00,
2014-03-02 16:55:00,61.3,0.0,30.09,NNE,22,10.5,11.0,0,0.00,,,0.00,WUHU21623XXSP,2014-03-02 23:55:00,
2014-03-02 17:00:00,60.4,0.0,30.10,NNE,22,6.5,10.5,0,0.00,,,0.00,WUHU21623XXSP,2014-03-03 00:00:00,
2014-03-02 17:05:00,59.7,0.0,30.10,NNE,22,7.4,10.3,0,0.00,,,0.00,WUHU21623XXSP,2014-03-03 00:05:00,
2014-03-02 17:10:00,59.2,0.0,30.10,NNE,22,6.0,11.0,0,0.00,,,0.00,WUHU21623XXSP,2014-03-03 00:10:00,
2014-03-02 17:15:00,58.8,0.0,30.10,NE,45,4.0,11.0,0,0.00,,,0.00,WUHU21623XXSP,2014-03-03 00:15:00,
2014-03-02 17:20:00,58.6,0.0,30.10,NNE,22,4.5,8.3,0,0.00,,,0.00,WUHU21623XXSP,2014-03-03 00:20:00,
2014-03-02 17:25:00,58.1,0.0,30.10,NNE,22,8.5,9.4,0,0.00,,,0.00,WUHU21623XXSP,2014-03-03 00:25:00,
2014-03-02 17:30:00,57.9,0.0,30.10,NNE,22,6.3,9.6,0,0.00,,,0.00,WUHU21623XXSP,2014-03-03 00:30:00,
2014-03-02 17:35:00,58.3,0.0,30.10,NNE,22,6.3,9.6,0,0.00,,,0.00,WUHU21623XXSP,2014-03-03 00:35:00,
2014-03-02 17:40:00,58.3,0.0,30.10,NNE,22,6.0,7.6,0,0.00,,,0.00,WUHU21623XXSP,2014-03-03 00:40:00,
2014-03-02 17:45:00,57.4,0.0,30.10,NNE,22,5.4,6.9,0,0.00,,,0.00,WUHU21623XXSP,2014-03-03 00:45:00,
2014-03-02 17:50:00,56.7,0.0,30.11,NNE,22,5.4,8.1,0,0.00,,,0.00,WUHU21623XXSP,2014-03-03 00:50:00,
2014-03-02 17:55:00,55.9,0.0,30.11,NNE,22,6.9,8.1,0,0.00,,,0.00,WUHU21623XXSP,2014-03-03 00:55:00,
2014-03-02 18:00:00,55.2,0.0,30.11,NNE,22,4.5,7.4,0,0.00,,,0.00,WUHU21623XXSP,2014-03-03 01:00:00,
2014-03-02 18:05:00,54.7,0.0,30.11,NNE,22,4.5,6.7,0,0.00,,,0.00,WUHU21623XXSP,2014-03-03 01:05:00,
2014-03-02 18:10:00,54.1,0.0,30.11,NNE,22,5.4,6.0,0,0.00,,,0.00,WUHU21623XXSP,2014-03-03 01:10:00,
2014-03-02 18:15:00,53.4,0.0,30.11,NNE,22,4.7,6.7,0,0.00,,,0.00,WUHU21623XXSP,2014-03-03 01:15:00,
2014-03-02 18:20:00,53.2,0.0,30.11,NNE,22,3.1,6.7,0,0.00,,,0.00,WUHU21623XXSP,2014-03-03 01:20:00,
2014-03-02 18:25:00,52.9,0.0,30.11,NNE,22,3.6,5.8,0,0.00,,,0.00,WUHU21623XXSP,2014-03-03 01:25:00,
2014-03-02 18:30:00,52.5,0.0,30.11,NNE,22,2.7,4.9,0,0.00,,,0.00,WUHU21623XXSP,2014-03-03 01:30:00,
2014-03-02 18:35:00,52.3,0.0,30.12,NNE,22,2.7,4.9,0,0.00,,,0.00,WUHU21623XXSP,2014-03-03 01:35:00,
2014-03-02 18:40:00,52.2,0.0,30.12,NNE,22,2.7,3.6,0,0.00,,,0.00,WUHU21623XXSP,2014-03-03 01:40:00,
2014-03-02 18:45:00,52.0,0.0,30.12,NNE,22,2.7,3.1,0,0.00,,,0.00,WUHU21623XXSP,2014-03-03 01:45:00,
2014-03-02 18:50:00,51.8,0.0,30.12,NNE,22,2.9,3.4,0,0.00,,,0.00,WUHU21623XXSP,2014-03-03 01:50:00,
2014-03-02 18:55:00,51.6,0.0,30.12,NNE,22,1.6,3.4,0,0.00,,,0.00,WUHU21623XXSP,2014-03-03 01:55:00,
2014-03-02 19:00:00,51.6,0.0,30.12,NNE,22,1.6,3.1,0,0.00,,,0.00,WUHU21623XXSP,2014-03-03 02:00:00,
2014-03-02 19:05:00,51.4,0.0,30.13,NNE,22,1.1,2.9,0,0.00,,,0.00,WUHU21623XXSP,2014-03-03 02:05:00,
2014-03-02 19:10:00,51.4,0.0,30.12,NNE,22,1.1,2.9,0,0.00,,,0.00,WUHU21623XXSP,2014-03-03 02:10:00,
2014-03-02 19:15:00,51.3,0.0,30.12,NNE,22,2.0,2.0,0,0.00,,,0.00,WUHU21623XXSP,2014-03-03 02:15:00,
2014-03-02 19:20:00,51.1,0.0,30.12,NNE,22,1.6,2.0,0,0.00,,,0.00,WUHU21623XXSP,2014-03-03 02:20:00,
2014-03-02 19:25:00,50.9,0.0,30.13,NNE,22,0.9,1.8,0,0.00,,,0.00,WUHU21623XXSP,2014-03-03 02:25:00,
2014-03-02 19:30:00,50.7,0.0,30.13,NNE,22,1.6,1.8,0,0.00,,,0.00,WUHU21623XXSP,2014-03-03 02:30:00,
2014-03-02 19:35:00,50.4,0.0,30.12,NNE,22,1.6,1.8,0,0.00,,,0.00,WUHU21623XXSP,2014-03-03 02:35:00,
2014-03-02 19:40:00,50.2,0.0,30.13,NNE,22,2.0,2.5,0,0.00,,,0.00,WUHU21623XXSP,2014-03-03 02:40:00,
2014-03-02 19:45:00,50.0,0.0,30.13,NNE,22,2.5,2.7,0,0.00,,,0.00,WUHU21623XXSP,2014-03-03 02:45:00,
2014-03-02 19:50:00,49.8,0.0,30.13,NNE,22,1.6,3.4,0,0.00,,,0.00,WUHU21623XXSP,2014-03-03 02:50:00,
2014-03-02 19:55:00,49.8,0.0,30.13,North,0,3.4,4.0,0,0.00,,,0.00,WUHU21623XXSP,2014-03-03 02:55:00,
2014-03-02 20:00:00,49.6,0.0,30.13,North,0,3.1,4.0,0,0.00,,,0.00,WUHU21623XXSP,2014-03-03 03:00:00,
2014-03-02 20:05:00,49.5,0.0,30.13,North,0,0.0,4.0,0,0.00,,,0.00,WUHU21623XXSP,2014-03-03 03:05:00,
2014-03-02 20:10:00,49.3,0.0,30.13,North,0,0.0,3.4,0,0.00,,,0.00,WUHU21623XXSP,2014-03-03 03:10:00,
2014-03-02 20:15:00,49.1,0.0,30.14,North,0,0.0,3.1,0,0.00,,,0.00,WUHU21623XXSP,2014-03-03 03:15:00,
2014-03-02 20:20:00,48.9,0.0,30.14,North,0,1.3,6.9,0,0.00,,,0.00,WUHU21623XXSP,2014-03-03 03:20:00,
2014-03-02 20:25:00,48.9,0.0,30.14,North,0,3.1,6.9,0,0.00,,,0.00,WUHU21623XXSP,2014-03-03 03:25:00,
2014-03-02 20:30:00,48.9,0.0,30.15,North,0,4.5,6.3,0,0.00,,,0.00,WUHU21623XXSP,2014-03-03 03:30:00,
2014-03-02 20:46:00,48.6,0.0,30.15,North,0,0.0,0.0,0,0.00,,,0.00,WUHU21623XXSP,2014-03-03 03:46:00,
2014-03-02 20:51:00,48.4,0.0,30.15,North,0,0.0,0.0,0,0.00,,,0.00,WUHU21623XXSP,2014-03-03 03:51:00,
2014-03-02 20:56:00,48.2,0.0,30.15,North,0,0.0,0.0,0,0.00,,,0.00,WUHU21623XXSP,2014-03-03 03:56:00,
2014-03-02 21:01:00,48.0,0.0,30.16,North,0,0.0,0.0,0,0.00,,,0.00,WUHU21623XXSP,2014-03-03 04:01:00,
2014-03-02 21:06:00,47.8,0.0,30.16,North,0,3.6,4.0,0,0.00,,,0.00,WUHU21623XXSP,2014-03-03 04:06:00,
2014-03-02 21:11:00,47.8,0.0,30.16,North,0,3.1,4.3,0,0.00,,,0.00,WUHU21623XXSP,2014-03-03 04:11:00,
2014-03-02 21:17:00,47.7,0.0,30.16,North,0,0.0,4.3,0,0.00,,,0.00,WUHU21623XXSP,2014-03-03 04:17:00,
2014-03-02 21:22:00,47.7,0.0,30.15,North,0,2.2,2.2,0,0.00,,,0.00,WUHU21623XXSP,2014-03-03 04:22:00,
2014-03-02 21:27:00,47.7,0.0,30.15,North,0,1.8,2.7,0,0.00,,,0.00,WUHU21623XXSP,2014-03-03 04:27:00,
2014-03-02 21:32:00,47.5,0.0,30.15,North,0,1.6,2.7,0,0.00,,,0.00,WUHU21623XXSP,2014-03-03 04:32:00,
2014-03-02 21:37:00,47.3,0.0,30.16,North,0,2.5,2.5,0,0.00,,,0.00,WUHU21623XXSP,2014-03-03 04:37:00,
2014-03-02 21:42:00,47.1,0.0,30.16,North,0,2.9,3.6,0,0.00,,,0.00,WUHU21623XXSP,2014-03-03 04:42:00,
2014-03-02 21:47:00,47.1,0.0,30.16,North,0,2.7,3.6,0,0.00,,,0.00,WUHU21623XXSP,2014-03-03 04:47:00,
2014-03-02 21:52:00,47.1,0.0,30.15,North,0,1.6,3.1,0,0.00,,,0.00,WUHU21623XXSP,2014-03-03 04:52:00,
2014-03-02 21:57:00,47.1,0.0,30.15,North,0,0.0,2.5,0,0.00,,,0.00,WUHU21623XXSP,2014-03-03 04:57:00,
2014-03-02 22:01:00,46.9,0.0,30.15,North,0,0.0,2.0,0,0.00,,,0.00,WUHU21623XXSP,2014-03-03 05:01:00,
2014-03-02 22:02:00,46.9,0.0,30.15,North,0,0.0,0.0,0,0.00,,,0.00,WUHU21623XXSP,2014-03-03 05:02:00,
2014-03-02 22:07:00,46.9,0.0,30.15,North,0,0.0,0.0,0,0.00,,,0.00,WUHU21623XXSP,2014-03-03 05:07:00,
2014-03-02 22:12:00,46.9,0.0,30.15,North,0,0.0,0.0,0,0.00,,,0.00,WUHU21623XXSP,2014-03-03 05:12:00,
2014-03-02 22:17:00,46.8,0.0,30.15,North,0,2.7,2.7,0,0.00,,,0.00,WUHU21623XXSP,2014-03-03 05:17:00,
2014-03-02 22:22:00,46.9,0.0,30.16,North,0,0.9,2.7,0,0.00,,,0.00,WUHU21623XXSP,2014-03-03 05:22:00,
2014-03-02 22:28:00,47.1,0.0,30.16,North,0,0.0,1.8,0,0.00,,,0.00,WUHU21623XXSP,2014-03-03 05:28:00,
2014-03-02 22:33:00,46.9,0.0,30.16,North,0,2.0,3.1,0,0.00,,,0.00,WUHU21623XXSP,2014-03-03 05:33:00,
2014-03-02 22:38:00,46.8,0.0,30.16,North,0,0.0,3.1,0,0.00,,,0.00,WUHU21623XXSP,2014-03-03 05:38:00,
2014-03-02 22:43:00,46.8,0.0,30.16,North,0,2.7,2.7,0,0.00,,,0.00,WUHU21623XXSP,2014-03-03 05:43:00,
2014-03-02 22:48:00,46.4,0.0,30.16,North,0,0.0,2.9,0,0.00,,,0.00,WUHU21623XXSP,2014-03-03 05:48:00,
2014-03-02 22:53:00,46.2,0.0,30.16,North,0,0.0,2.9,0,0.00,,,0.00,WUHU21623XXSP,2014-03-03 05:53:00,
2014-03-02 22:58:00,46.2,0.0,30.16,North,0,0.0,0.0,0,0.00,,,0.00,WUHU21623XXSP,2014-03-03 05:58:00,
2014-03-02 23:03:00,46.6,0.0,30.16,North,0,0.0,0.0,0,0.00,,,0.00,WUHU21623XXSP,2014-03-03 06:03:00,
2014-03-02 23:08:00,46.2,0.0,30.15,North,0,0.0,0.0,0,0.00,,,0.00,WUHU21623XXSP,2014-03-03 06:08:00,
2014-03-02 23:13:00,46.2,0.0,30.16,North,0,0.0,0.0,0,0.00,,,0.00,WUHU21623XXSP,2014-03-03 06:13:00,
2014-03-02 23:18:00,46.0,0.0,30.16,North,0,0.0,0.0,0,0.00,,,0.00,WUHU21623XXSP,2014-03-03 06:18:00,
2014-03-02 23:23:00,45.9,0.0,30.16,North,0,0.0,0.0,0,0.00,,,0.00,WUHU21623XXSP,2014-03-03 06:23:00,
2014-03-02 23:28:00,46.0,0.0,30.16,North,0,0.0,0.0,0,0.00,,,0.00,WUHU21623XXSP,2014-03-03 06:28:00,
2014-03-02 23:33:00,46.0,0.0,30.16,North,0,0.0,0.0,0,0.00,,,0.00,WUHU21623XXSP,2014-03-03 06:33:00,
2014-03-02 23:38:00,46.0,0.0,30.15,North,0,0.0,0.0,0,0.00,,,0.00,WUHU21623XXSP,2014-03-03 06:38:00,
2014-03-02 23:43:00,46.0,0.0,30.15,North,0,0.0,0.0,0,0.00,,,0.00,WUHU21623XXSP,2014-03-03 06:43:00,
2014-03-02 23:48:00,46.0,0.0,30.15,North,0,0.0,0.0,0,0.00,,,0.00,WUHU21623XXSP,2014-03-03 06:48:00,
2014-03-02 23:53:00,46.0,0.0,30.16,North,0,0.0,0.0,0,0.00,,,0.00,WUHU21623XXSP,2014-03-03 06:53:00,
2014-03-02 23:58:00,45.9,0.0,30.15,North,0,0.0,0.0,0,0.00,,,0.00,WUHU21623XXSP,2014-03-03 06:58:00,